This demonstration page uses our WeatherBlox Daily Observations layout. Learn more.

Left ArrowRight Arrow

44.31136, -96.79839

Hourly Observations for July 3, 2015

Temp ( °F °C ) Dew Point ( °F °C ) Humidity (%) Winds ( mph kmh ) Pressure ( in mb ) Visibility ( mi km ) Precip ( " mm )
12:15 am 00:15 Clear 57 14 54 12 88 88 SSW 5 7 30.03 1017 10 16 0.00 0.00
12:35 am 00:35 Clear 59 15 54 12 82 82 SSW 3 6 30.00 1016 10 16 0.00 0.00
12:55 am 00:55 Clear 57 14 52 11 82 82 Calm 30.03 1017 10 16 0.00 0.00
1:15 am 01:15 Clear 55 13 52 11 88 88 Calm 30.03 1017 8 13 0.00 0.00
1:35 am 01:35 Clear 57 14 52 11 82 82 Calm 30.03 1017 10 16 0.00 0.00
1:55 am 01:55 Clear 55 13 52 11 88 88 Calm 30.03 1017 10 16 0.00 0.00
2:15 am 02:15 Clear 57 14 54 12 88 88 Calm 30.03 1017 10 16 0.00 0.00
2:35 am 02:35 Clear 57 14 52 11 82 82 Calm 30.03 1017 9 14 0.00 0.00
2:55 am 02:55 Clear 55 13 50 10 82 82 Calm 30.03 1017 8 13 0.00 0.00
3:15 am 03:15 Clear 55 13 50 10 82 82 Calm 30.03 1017 8 13 0.00 0.00
3:35 am 03:35 Clear 54 12 50 10 88 88 Calm 30.03 1017 6 10 0.00 0.00
3:55 am 03:55 Clear 54 12 52 11 94 94 S 6 9 30.03 1017 7 11 0.00 0.00
4:15 am 04:15 Clear 55 13 52 11 88 88 Calm 30.03 1017 7 11 0.00 0.00
4:35 am 04:35 Clear 52 11 46 8 82 82 Calm 30.03 1017 5 8 0.00 0.00
4:55 am 04:55 Clear 54 12 50 10 88 88 Calm 30.03 1017 5 8 0.00 0.00
5:15 am 05:15 Clear 54 12 52 11 94 94 Calm 30.03 1017 5 8 0.00 0.00
5:35 am 05:35 Clear 54 12 48 9 82 82 Calm 30.03 1017 5 8 0.00 0.00
5:55 am 05:55 Sunny 52 11 48 9 88 88 Calm 30.03 1017 3 5 0.00 0.00
6:15 am 06:15 Sunny 52 11 48 9 88 88 Calm 30.03 1017 3 5 0.00 0.00
6:35 am 06:35 Mostly Cloudy 54 12 50 10 88 88 S 5 7 30.03 1017 1 1 0.00 0.00
6:55 am 06:55 Sunny 54 12 52 11 94 94 Calm 30.03 1017 3 5 0.00 0.00
7:15 am 07:15 Sunny 55 13 52 11 88 88 Calm 30.03 1017 3 5 0.00 0.00
7:35 am 07:35 Sunny 54 12 48 9 82 82 Calm 30.03 1017 9 14 0.00 0.00
7:55 am 07:55 Sunny 57 14 54 12 88 88 WSW 3 6 30.03 1017 4 6 0.00 0.00
8:15 am 08:15 Partly Cloudy 57 14 54 12 88 88 SW 3 6 30.03 1017 5 8 0.00 0.00
8:35 am 08:35 Cloudy 57 14 54 12 88 88 SW 3 6 30.03 1017 1 2 0.00 0.00
8:55 am 08:55 Cloudy 59 15 55 13 88 88 Calm 30.00 1016 0 0 0.00 0.00
9:15 am 09:15 Cloudy 61 16 57 14 88 88 SW 3 6 30.00 1016 1 1 0.00 0.00
9:35 am 09:35 Cloudy 63 17 59 15 88 88 WSW 3 6 30.00 1016 3 4 0.00 0.00
9:55 am 09:55 Cloudy 63 17 59 15 88 88 WSW 5 7 30.00 1016 4 6 0.00 0.00
10:15 am 10:15 Cloudy 63 17 59 15 88 88 WSW 6 9 30.00 1016 5 8 0.00 0.00
10:35 am 10:35 Cloudy 64 18 61 16 88 88 SW 7 11 30.00 1016 7 11 0.00 0.00
10:55 am 10:55 Cloudy 66 19 61 16 83 83 SSW 5 7 30.00 1016 7 11 0.00 0.00
11:15 am 11:15 Cloudy 68 20 61 16 78 78 WSW 6 9 29.97 1015 8 13 0.00 0.00
11:35 am 11:35 Mostly Cloudy 70 21 63 17 78 78 WSW 7 11 29.94 1014 9 14 0.00 0.00
11:55 am 11:55 Partly Cloudy 72 22 63 17 73 73 W 5 7 29.94 1014 10 16 0.00 0.00
12:15 pm 12:15 Mostly Sunny 72 22 63 17 73 73 Calm 29.94 1014 10 16 0.00 0.00
12:35 pm 12:35 Mostly Sunny 73 23 64 18 74 74 WSW 7 11 29.94 1014 10 16 0.00 0.00
12:55 pm 12:55 Sunny 73 23 63 17 69 69 WSW 3 6 29.94 1014 10 16 0.00 0.00
1:15 pm 13:15 Sunny 75 24 64 18 69 69 W 9 15 29.94 1014 10 16 0.00 0.00
1:35 pm 13:35 Mostly Sunny 75 24 64 18 69 69 Calm 29.94 1014 10 16 0.00 0.00
1:55 pm 13:55 Partly Cloudy 77 25 64 18 65 65 WNW 3 6 29.91 1013 10 16 0.00 0.00
2:15 pm 14:15 Mostly Sunny 77 25 64 18 65 65 WSW 6 9 29.91 1013 10 16 0.00 0.00
2:35 pm 14:35 Partly Cloudy 79 26 64 18 61 61 W 8 13 29.91 1013 10 16 0.00 0.00
2:55 pm 14:55 Mostly Sunny 77 25 64 18 65 65 WSW 6 9 29.91 1013 10 16 0.00 0.00
3:15 pm 15:15 Mostly Sunny 79 26 64 18 61 61 W 7 11 29.91 1013 10 16 0.00 0.00
3:35 pm 15:35 Partly Cloudy 79 26 66 19 65 65 WNW 7 11 29.88 1012 10 16 0.00 0.00
3:55 pm 15:55 Mostly Cloudy 79 26 64 18 61 61 NNW 3 6 29.88 1012 10 16 0.00 0.00
4:15 pm 16:15 Partly Cloudy 79 26 64 18 61 61 W 3 6 29.88 1012 10 16 0.00 0.00
4:35 pm 16:35 Mostly Cloudy 79 26 64 18 61 61 W 8 13 29.88 1012 10 16 0.00 0.00
4:55 pm 16:55 Partly Cloudy 79 26 64 18 61 61 W 7 11 29.88 1012 10 16 0.00 0.00
5:15 pm 17:15 Mostly Sunny 79 26 64 18 61 61 W 6 9 29.88 1012 10 16 0.00 0.00
5:35 pm 17:35 Partly Cloudy 79 26 64 18 61 61 W 8 13 29.88 1012 10 16 0.00 0.00
5:55 pm 17:55 Mostly Sunny 79 26 64 18 61 61 W 7 11 29.88 1012 10 16 0.00 0.00
6:15 pm 18:15 Sunny 79 26 64 18 61 61 W 8 13 29.88 1012 10 16 0.00 0.00
6:35 pm 18:35 Sunny 79 26 64 18 61 61 W 6 9 29.88 1012 10 16 0.00 0.00
6:55 pm 18:55 Sunny 79 26 64 18 61 61 W 6 9 29.88 1012 10 16 0.00 0.00
7:15 pm 19:15 Sunny 77 25 66 19 69 69 W 5 7 29.85 1011 10 16 0.00 0.00
7:35 pm 19:35 Sunny 77 25 64 18 65 65 W 5 7 29.85 1011 10 16 0.00 0.00
7:55 pm 19:55 Sunny 77 25 66 19 69 69 WSW 3 6 29.85 1011 10 16 0.00 0.00
8:15 pm 20:15 Sunny 77 25 66 19 69 69 SW 5 7 29.85 1011 9 14 0.00 0.00
8:35 pm 20:35 Sunny 75 24 64 18 69 69 SW 5 7 29.85 1011 10 16 0.00 0.00
8:55 pm 20:55 Sunny 75 24 64 18 69 69 SSW 5 7 29.85 1011 9 14 0.00 0.00
9:15 pm 21:15 Clear 73 23 64 18 74 74 SSW 6 9 29.88 1012 9 14 0.00 0.00
9:35 pm 21:35 Clear 72 22 64 18 78 78 SW 6 9 29.88 1012 9 14 0.00 0.00
9:55 pm 21:55 Clear 72 22 64 18 78 78 SW 6 9 29.91 1013 10 16 0.00 0.00
10:15 pm 22:15 Clear 70 21 63 17 78 78 SW 7 11 29.91 1013 10 16 0.00 0.00
10:35 pm 22:35 Clear 70 21 64 18 83 83 SW 5 7 29.91 1013 10 16 0.00 0.00
10:55 pm 22:55 Clear 70 21 63 17 78 78 WSW 5 7 29.91 1013 10 16 0.00 0.00
11:15 pm 23:15 Clear 68 20 63 17 83 83 SSW 3 6 29.91 1013 8 13 0.00 0.00
11:35 pm 23:35 Clear 66 19 63 17 88 88 Calm 29.91 1013 8 13 0.00 0.00
11:55 pm 23:55 Clear 66 19 63 17 88 88 SSW 5 7 29.91 1013 8 13 0.00 0.00

Powered by AerisWeather